カタログに戻る

STARLINK-32566

運用中通信VLEO
NORAD 61958·PAYLOAD·🇺🇸 United States

打ち上げ Nov 14, 2024 から Vandenberg Space Force Base

Loading…

次のパス (今後24時間)

TLE

最新Source: CelesTrak SupGP

元期: Sep 15, 2026, 03:35 UTC

1 61958C 24209V   26258.14979167  .00054290  00000+0  16034-2 0  2586
2 61958  53.1597 332.9366 0001211  95.4897  19.9391 15.34376005    17

AllMySatでSTARLINK-32566をリアルタイム追跡

Download on the App Store